Regional Weather Roundup
Issued by NWS Green Bay, WI

Home | Current Version | Previous Version | Graphics & Text | Print | Product List | Glossary Off
Versions: 1 2 3 4 5 6 7 8 9 10 11 12 13 14 15 16 17 18 19 20 21 22 23 24 25 26 27 28 29 30 31 32 33 34 35 36 37 38 39 40 41 42 43 44 45 46 47 48 49 50

000
ASUS43 KGRB 010611
RWRGRB

NORTH-CENTRAL AND NORTHEAST WISCONSIN REGIONAL WEATHER ROUNDUP
NATIONAL WEATHER SERVICE GREEN BAY WI
100 AM CDT SAT AUG 01 2015

WIZ005-009-010>012-018-019-010700-
NORTH CENTRAL WISCONSIN

CITY           SKY/WX    TMP DP  RH WIND       PRES   REMARKS
IRONWOOD       CLEAR     55  54  94 W5        29.90S
MANITOWISH WTR FOG       51  51 100 CALM      29.94S VSB 1/2
ARBOR VITAE    CLEAR     57  55  94 CALM      29.94S
EAGLE RIVER    FOG       53  53 100 SW3       29.94S VSB 3/4
LAND O LAKES   PTCLDY    54  53  97 W3        29.94S
RHINELANDER    CLEAR     55  53  93 W7        29.96S
PHILLIPS       CLEAR     57  52  82 CALM      29.96S
ANTIGO         CLEAR     56  55  94 W7        29.96S
TOMAHAWK       CLEAR     54  52  93 W3        29.96S
MERRILL        NOT AVBL
$$

WIZ013-073-010700-
NORTHEAST WISCONSIN

CITY           SKY/WX    TMP DP  RH WIND       PRES   REMARKS
IRON MOUNTAIN  CLEAR     61  53  75 W8        29.89S
MARINETTE      MOCLDY    63  50  63 W5        29.89F
OCONTO         CLEAR     59  55  87 W3        29.91S
$$

WIZ017-030-035>037-045-010700-
CENTRAL WISCONSIN

CITY           SKY/WX    TMP DP  RH WIND       PRES   REMARKS
MEDFORD        PTCLDY    59  52  77 W5        29.98S
WAUSAU         CLEAR     63  54  72 NW9       29.95S
MOSINEE        CLEAR     59  54  82 W6        29.98S
MARSHFIELD     CLEAR     60  50  69 W5        29.98S
WISC RAPIDS    CLEAR     61  51  70 W3        29.99S
STEVENS POINT  CLEAR     64  51  63 W8        29.98S
WAUPACA        CLEAR     62  55  75 W6        29.96F
SHAWANO        PTCLDY    64  56  76 W5        29.94S
CLINTONVILLE   CLEAR     61  54  77 W5        29.94S
$$

WIZ038-039-048-051-010700-
FOX VALLEY

CITY           SKY/WX    TMP DP  RH WIND       PRES   REMARKS
NWS GREEN BAY  CLOUDY    64  56  75 W7        29.93S
APPLETON       CLEAR     64  52  63 W9        29.96S
OSHKOSH        CLEAR     65  52  62 W3        29.96S
FOND DU LAC    PTCLDY    62  53  72 SW5       29.97S
$$

WIZ022-050-052-010700-
EAST CENTRAL WISCONSIN

CITY           SKY/WX    TMP DP  RH WIND       PRES   REMARKS
STURGEON BAY   MOCLDY    63  54  72 SW7       29.93S
MANITOWOC      MOCLDY    65  54  67 MISG      29.94S
SHEBOYGAN      PTCLDY    63  55  75 W6        29.95S
$$

LMZ563-521-522-541>543-010700-
LAKESHORE

STATION/POSITION TIME  TEMP    WIND        PRES    VSBY  WAVE
                       AIR SEA DIR/SP/G                  HT/PER
                 (UTC) (F)     (DEG/KT/KT) (MB)    (MI)  (FT/S)
SHEBOYGAN LKSHOR 0600   70     270/  7/  9 1014.0S
KEWAUNEE LKSHORE 0500   65     290/  4/  4 1012.6F
ALGOMA MARINA    0512          280/  3/  5   N/A
NORTHPORT PIER   0500   69     270/  6/ 13 1011.9S
N MID LAKE BUOY  0550   69 68  260/ 10/ 12 1011.0S         1/ 3
S GREEN BAY BUOY 0600   65 71  250/ 10/ 14 1014.2
CHAMBERS ISLAND  0500   68     230/  7/ 12 1012.5R
MENOMINEE LKSHOR 0500   67     260/  8/ 11 1013.3S
$$



USA.gov is the U.S. government's official web portal to all federal, state and local government web resources and services.